Red Deer, Alberta

9:53 PM MST on February 21, 2017 (GMT -0700)
Red Deer Industrial

Weather History for CYQF - May, 2013

Change the Weather History Date:

Thursday, May 23, 2013

  Actual Average Record
Temperature  
Mean Temperature 57 °F -  
Max Temperature 66 °F 67 °F 84 °F (2001)
Min Temperature 48 °F 43 °F 30 °F (2002)
Degree Days  
Heating Degree Days 8    
Growing Degree Days 7 (Base 50)    
Moisture  
Dew Point 33 °F    
Average Humidity 45    
Maximum Humidity 71    
Minimum Humidity 19    
Precipitation  
Precipitation 0.12 in 0.10 in - ()
Sea Level Pressure  
Sea Level Pressure 30.04 in    
Wind  
Wind Speed 13 mph ()    
Max Wind Speed 29 mph    
Max Gust Speed 40 mph    
Visibility 13.4 miles    
Events Rain    
Averages and records for this station are not official NWS values.
T = Trace of Precipitation, MM = Missing Value Source: Averaged Metar Reports

Daily Weather History Graph

Daily Weather History Graph

Search for Another Location

Airport or City:

Trip Planner

Search our weather history database for the weather conditions in past years. The results will help you decide how hot, cold, wet, or windy it might be!

Date:

Astronomy

May. 23, 2013 Rise Set
Actual Time 5:29 AM MDT 9:36 PM MDT
Civil Twilight 4:44 AM MDT 10:21 PM MDT
Nautical Twilight 3:40 AM MDT 11:26 PM MDT
Astronomical Twilight 2:04 AM MDT 12:59 AM MDT
Moon 8:04 PM MDT (5/23) 4:31 AM MDT (5/23)
Length of Visible Light 17h 36m
Length of Day
16h 06m
Waxing Gibbous, 97% of the Moon is Illuminated
May 23
Waxing Gibbous
May 24
Full
May 31
Last Quarter
Jun 8
New
Jun 16
First Quarter

Hourly Weather History & Observations

Time (MDT) Temp. Dew Point Humidity Pressure Visibility Wind Dir Wind Speed Gust Speed Precip Events Conditions
12:00 AM 59 °F 29 °F 21% 30.06 in 15 mi East 12.7 mph - -   Overcast
12:00 AM 59.0 °F 30.2 °F 34% 30.06 in 15.0 mi ESE 11.5 mph - N/A   Overcast
1:00 AM 57.2 °F 28.4 °F 33% 30.06 in 15.0 mi SE 9.2 mph - N/A   Overcast
2:00 AM 53.6 °F 28.4 °F 38% 30.05 in 15.0 mi SE 11.5 mph - N/A   Mostly Cloudy
3:00 AM 51.8 °F 26.6 °F 38% 30.07 in 15.0 mi ESE 11.5 mph - N/A   Mostly Cloudy
4:00 AM 51.8 °F 32.0 °F 47% 30.08 in 15.0 mi ESE 11.5 mph - N/A   Mostly Cloudy
5:00 AM 51.8 °F 32.0 °F 47% 30.07 in 15.0 mi ESE 13.8 mph - N/A   Mostly Cloudy
6:00 AM 50 °F 31 °F 35% 30.06 in 15 mi ESE 13.8 mph - -   Scattered Clouds
6:00 AM 50.0 °F 30.2 °F 47% 30.06 in 15.0 mi East 12.7 mph - N/A   Mostly Cloudy
7:00 AM 50.0 °F 30.2 °F 47% 30.06 in 15.0 mi East 11.5 mph 17.3 mph N/A   Mostly Cloudy
8:00 AM 51.8 °F 32.0 °F 47% 30.06 in 15.0 mi East 11.5 mph 17.3 mph N/A   Mostly Cloudy
9:00 AM 55.4 °F 32.0 °F 41% 30.05 in 15.0 mi East 13.8 mph 23.0 mph N/A   Mostly Cloudy
10:00 AM 60.8 °F 33.8 °F 36% 30.04 in 15.0 mi ESE 19.6 mph 28.8 mph N/A   Mostly Cloudy
11:00 AM 64.4 °F 28.4 °F 26% 30.01 in 15.0 mi SE 17.3 mph 28.8 mph N/A   Mostly Cloudy
12:00 PM 65 °F 33 °F 19% 29.99 in 15 mi ESE 23.0 mph - -   Partly Cloudy
12:00 PM 64.4 °F 33.8 °F 32% 29.99 in 15.0 mi ESE 23.0 mph 34.5 mph N/A   Mostly Cloudy
1:00 PM 64.4 °F 33.8 °F 32% 29.99 in 15.0 mi ESE 23.0 mph 34.5 mph N/A   Mostly Cloudy
2:00 PM 64.4 °F 33.8 °F 32% 29.97 in 15.0 mi ESE 19.6 mph 32.2 mph N/A   Overcast
3:00 PM 62.6 °F 32.0 °F 32% 29.99 in 15.0 mi SE 23.0 mph 34.5 mph N/A   Mostly Cloudy
4:00 PM 60.8 °F 32.0 °F 34% 30.01 in 15.0 mi SE 23.0 mph 34.5 mph N/A   Overcast
4:28 PM - - N/A% - 15.0 mi SSE 28.8 mph 40.3 mph N/A Rain Light Rain
5:00 PM 51.8 °F 37.4 °F 58% 30.04 in 8.0 mi SSE 23.0 mph 34.5 mph N/A Rain Light Rain
6:00 PM 50 °F 39 °F 56% 30.07 in 6 mi SE 15.0 mph - - Rain Light Rain
6:00 PM 50.0 °F 39.2 °F 66% 30.07 in 6.0 mi SE 15.0 mph 20.7 mph N/A Rain Light Rain
7:00 PM 48.2 °F 39.2 °F 71% 30.06 in 10.0 mi East 11.5 mph 17.3 mph N/A Rain Light Rain
8:00 PM 48.2 °F 39.2 °F 71% 30.04 in 10.0 mi East 9.2 mph - N/A Rain Light Rain
9:00 PM 48.2 °F 39.2 °F 71% 30.02 in 10.0 mi ENE 9.2 mph - N/A Rain Light Rain
10:00 PM 48.2 °F 39.2 °F 71% 30.01 in 10.0 mi ENE 5.8 mph - N/A Rain Light Rain
11:00 PM 50.0 °F 39.2 °F 66% 30.00 in 15.0 mi ENE 6.9 mph - N/A Rain Light Rain